Location: Street
(51.1247°N, 2.7429°W)
Time: 15:24:24
(UTC+01:00)

CAS-6 - Pass Details

Date: 29 March 2023
Orbit: 610 x 632 km, 97.9° (Epoch: 03 June)

Event Time Altitude Azimuth Distance (km) Brightness Sun altitude
Exits shadow 23:20:23 38° 345° (NNW) 966 ? -30.0°
Drops below altitude 10° 23:23:05 10° 346° (NNW) 2,007 ? -30.3°
Sets 23:25:18 0° 346° (NNW) 2,922 ? -30.5°
